Location: Vancouver
(49.2500°N, 123.1330°W)
Time: 12:12:42
(UTC-07:00)

Oscar 11 - Visible Passes

Search period start: 27 July 2016 00:00
Search period end: 06 August 2016 00:00
Orbit: 614 x 626 km, 97.7° (Epoch: 27 July)

Date Brightness Start Highest point End Pass type
(mag) Time Alt. Az. Time Alt. Az. Time Alt. Az.
27 Jul 7.8 21:54:54 10° S 21:59:10 52° W 22:03:26 10° NNW visible
28 Jul 8.5 22:12:40 10° SSW 22:16:40 35° W 22:20:42 10° NNW visible
29 Jul 9.1 22:30:40 10° SSW 22:34:14 24° W 22:37:50 10° NW visible
30 Jul 9.6 22:49:00 10° SW 22:51:50 17° W 22:54:43 10° NW visible
31 Jul 7.1 21:28:23 10° SSE 21:32:44 86° ENE 21:37:07 10° NNW visible
31 Jul 9.9 23:08:01 10° WSW 23:09:29 11° W 23:10:58 10° WNW visible
01 Aug 7.5 21:45:52 10° S 21:50:11 64° WSW 21:54:31 10° NNW visible
02 Aug 8.2 22:03:33 10° S 22:07:41 43° W 22:11:50 10° NNW visible
03 Aug 8.8 22:21:25 10° SSW 22:25:13 29° W 22:29:02 10° NNW visible
04 Aug 9.4 22:39:33 10° SW 22:42:48 20° W 22:46:03 10° NW visible
05 Aug 7.1 21:19:28 10° SSE 21:23:47 72° ENE 21:28:07 10° N visible
05 Aug 9.7 22:58:08 10° WSW 23:00:25 14° W 23:02:42 10° NW visible
